SB KEPS @ AMSAT $ORB14185.O Orbital Elements 14185.OSCAR
HR AMSAT ORBITAL ELEMENTS FOR OSCAR SATELLITES FROM WA5QGD FORT WORTH,TX July 4, 2014 BID: ORB14185.O TO ALL RADIO AMATEURS BT
Satellite: AO-07 Catalog number: 07530 Epoch time: 14184.50681545 Element set: 5 Inclination: 101.4721 deg RA of node: 165.8014 deg Eccentricity: 0.0011434 Arg of perigee: 263.1321 deg Mean anomaly: 209.9128 deg Mean motion: 12.53605635 rev/day Decay rate: -1.5e-07 rev/day^2 Epoch rev: 81356 Checksum: 259
Satellite: FO-29 Catalog number: 24278 Epoch time: 14184.11685331 Element set: 410 Inclination: 098.5118 deg RA of node: 195.7784 deg Eccentricity: 0.0349507 Arg of perigee: 256.2467 deg Mean anomaly: 143.0309 deg Mean motion: 13.53025211 rev/day Decay rate: 1.5e-07 rev/day^2 Epoch rev: 88282 Checksum: 306
Satellite: SO-33 Catalog number: 25509 Epoch time: 14184.07035277 Element set: 784 Inclination: 031.4352 deg RA of node: 070.3857 deg Eccentricity: 0.0349708 Arg of perigee: 253.5202 deg Mean anomaly: 254.6934 deg Mean motion: 14.29555271 rev/day Decay rate: 7.9e-07 rev/day^2 Epoch rev: 81942 Checksum: 318
Satellite: RS-22 Catalog number: 27939 Epoch time: 14185.03235825 Element set: 636 Inclination: 097.8107 deg RA of node: 358.3404 deg Eccentricity: 0.0014431 Arg of perigee: 056.4027 deg Mean anomaly: 303.8530 deg Mean motion: 14.65227795 rev/day Decay rate: 4.33e-06 rev/day^2 Epoch rev: 57519 Checksum: 309
Satellite: VO-52 Catalog number: 28650 Epoch time: 14184.58915814 Element set: 781 Inclination: 097.5598 deg RA of node: 188.7348 deg Eccentricity: 0.0026756 Arg of perigee: 104.0715 deg Mean anomaly: 256.3478 deg Mean motion: 14.85535304 rev/day Decay rate: 1.313e-05 rev/day^2 Epoch rev: 49566 Checksum: 349
Satellite: HO-68 Catalog number: 36122 Epoch time: 14185.05949935 Element set: 733 Inclination: 100.2487 deg RA of node: 236.4222 deg Eccentricity: 0.0007482 Arg of perigee: 195.6679 deg Mean anomaly: 164.4203 deg Mean motion: 13.16316567 rev/day Decay rate: -4.3e-07 rev/day^2 Epoch rev: 21865 Checksum: 311
Satellite: AO-73 Catalog number: 39444 Epoch time: 14184.33292887 Element set: 184 Inclination: 097.7708 deg RA of node: 254.4350 deg Eccentricity: 0.0061535 Arg of perigee: 189.7615 deg Mean anomaly: 170.2506 deg Mean motion: 14.78342576 rev/day Decay rate: 1.088e-05 rev/day^2 Epoch rev: 3185 Checksum: 336
Satellite: EO-79 Catalog number: 40025 Epoch time: 14185.19519029 Element set: 33 Inclination: 097.9833 deg RA of node: 079.8540 deg Eccentricity: 0.0011681 Arg of perigee: 242.5121 deg Mean anomaly: 117.4932 deg Mean motion: 14.85210134 rev/day Decay rate: 9.62e-06 rev/day^2 Epoch rev: 211 Checksum: 281
/EX SB KEPS @ AMSAT $ORB14185.D Orbital Elements 14185.MICROS
HR AMSAT ORBITAL ELEMENTS FOR THE MICROSATS FROM WA5QGD FORT WORTH,TX July 4, 2014 BID: ORB14185.D TO ALL RADIO AMATEURS BT
Satellite: UO-11 Catalog number: 14781 Epoch time: 14184.24033761 Element set: 535 Inclination: 097.8517 deg RA of node: 244.0541 deg Eccentricity: 0.0010140 Arg of perigee: 126.0736 deg Mean anomaly: 234.1418 deg Mean motion: 14.81626740 rev/day Decay rate: 6.45e-06 rev/day^2 Epoch rev: 63034 Checksum: 271
Satellite: AO-16 Catalog number: 20439 Epoch time: 14183.81703367 Element set: 58 Inclination: 098.5068 deg RA of node: 120.8591 deg Eccentricity: 0.0012108 Arg of perigee: 112.1425 deg Mean anomaly: 301.3764 deg Mean motion: 14.32363381 rev/day Decay rate: 7.7e-07 rev/day^2 Epoch rev: 27672 Checksum: 287
Satellite: LO-19 Catalog number: 20442 Epoch time: 14184.06979789 Element set: 996 Inclination: 098.4777 deg RA of node: 121.7140 deg Eccentricity: 0.0013098 Arg of perigee: 101.6943 deg Mean anomaly: 258.5711 deg Mean motion: 14.32565378 rev/day Decay rate: 5.6e-07 rev/day^2 Epoch rev: 27695 Checksum: 346
Satellite: AO-27 Catalog number: 22825 Epoch time: 14184.44352262 Element set: 705 Inclination: 098.6622 deg RA of node: 130.4379 deg Eccentricity: 0.0007428 Arg of perigee: 246.0159 deg Mean anomaly: 258.3481 deg Mean motion: 14.29725985 rev/day Decay rate: 6.6e-07 rev/day^2 Epoch rev: 8310 Checksum: 312
Satellite: IO-26 Catalog number: 22826 Epoch time: 14184.82719428 Element set: 462 Inclination: 098.6566 deg RA of node: 131.0362 deg Eccentricity: 0.0008064 Arg of perigee: 236.6762 deg Mean anomaly: 123.3648 deg Mean motion: 14.30027411 rev/day Decay rate: 5.1e-07 rev/day^2 Epoch rev: 8329 Checksum: 294
Satellite: GO-32 Catalog number: 25397 Epoch time: 14184.48111160 Element set: 384 Inclination: 098.4691 deg RA of node: 141.8620 deg Eccentricity: 0.0000384 Arg of perigee: 187.5366 deg Mean anomaly: 296.0194 deg Mean motion: 14.23448580 rev/day Decay rate: 2.0e-07 rev/day^2 Epoch rev: 83018 Checksum: 299
Satellite: NO-44 Catalog number: 26931 Epoch time: 14185.10912354 Element set: 640 Inclination: 067.0527 deg RA of node: 354.8189 deg Eccentricity: 0.0006621 Arg of perigee: 281.6277 deg Mean anomaly: 078.4081 deg Mean motion: 14.30125781 rev/day Decay rate: 5.2e-07 rev/day^2 Epoch rev: 66602 Checksum: 294
Satellite: SO-50 Catalog number: 27607 Epoch time: 14184.16665070 Element set: 435 Inclination: 064.5554 deg RA of node: 183.6349 deg Eccentricity: 0.0049575 Arg of perigee: 005.9745 deg Mean anomaly: 354.1936 deg Mean motion: 14.73793805 rev/day Decay rate: 5.43e-06 rev/day^2 Epoch rev: 61983 Checksum: 338
Satellite: CO-55 Catalog number: 27844 Epoch time: 14184.82597341 Element set: 962 Inclination: 098.6977 deg RA of node: 193.3575 deg Eccentricity: 0.0009056 Arg of perigee: 220.8330 deg Mean anomaly: 263.8783 deg Mean motion: 14.21518868 rev/day Decay rate: 1.58e-06 rev/day^2 Epoch rev: 57094 Checksum: 356
Satellite: CO-57 Catalog number: 27848 Epoch time: 14184.55310464 Element set: 902 Inclination: 098.7072 deg RA of node: 192.8084 deg Eccentricity: 0.0008859 Arg of perigee: 228.8565 deg Mean anomaly: 257.0828 deg Mean motion: 14.21204353 rev/day Decay rate: 1.38e-06 rev/day^2 Epoch rev: 57082 Checksum: 330
Satellite: AO-51 Catalog number: 28375 Epoch time: 14184.44987355 Element set: 878 Inclination: 098.2505 deg RA of node: 130.8060 deg Eccentricity: 0.0081844 Arg of perigee: 303.6125 deg Mean anomaly: 055.7273 deg Mean motion: 14.41396787 rev/day Decay rate: 1.44e-06 rev/day^2 Epoch rev: 52624 Checksum: 326
Satellite: CP3 Catalog number: 31129 Epoch time: 14184.47515766 Element set: 786 Inclination: 097.9342 deg RA of node: 161.6320 deg Eccentricity: 0.0097166 Arg of perigee: 320.8236 deg Mean anomaly: 154.7694 deg Mean motion: 14.54723711 rev/day Decay rate: 7.95e-06 rev/day^2 Epoch rev: 38240 Checksum: 323
Satellite: CO-65 Catalog number: 32785 Epoch time: 14184.12857267 Element set: 991 Inclination: 097.6987 deg RA of node: 234.9011 deg Eccentricity: 0.0015229 Arg of perigee: 133.9585 deg Mean anomaly: 278.9630 deg Mean motion: 14.85338685 rev/day Decay rate: 1.049e-05 rev/day^2 Epoch rev: 33439 Checksum: 361
Satellite: PRISM Catalog number: 33493 Epoch time: 14185.07520991 Element set: 67 Inclination: 098.2498 deg RA of node: 001.4431 deg Eccentricity: 0.0018475 Arg of perigee: 033.6675 deg Mean anomaly: 326.5706 deg Mean motion: 14.89518536 rev/day Decay rate: 2.290e-05 rev/day^2 Epoch rev: 29469 Checksum: 325
Satellite: SOHLA-1 Catalog number: 33496 Epoch time: 14184.93787345 Element set: 392 Inclination: 098.1717 deg RA of node: 305.9108 deg Eccentricity: 0.0006700 Arg of perigee: 178.3953 deg Mean anomaly: 321.4722 deg Mean motion: 14.70825289 rev/day Decay rate: 3.14e-06 rev/day^2 Epoch rev: 29197 Checksum: 325
Satellite: TISAT-1 Catalog number: 36799 Epoch time: 14185.19041925 Element set: 329 Inclination: 098.0170 deg RA of node: 277.3138 deg Eccentricity: 0.0012061 Arg of perigee: 265.2211 deg Mean anomaly: 094.7658 deg Mean motion: 14.85718805 rev/day Decay rate: 1.510e-05 rev/day^2 Epoch rev: 21524 Checksum: 300
Satellite: STUDSAT Catalog number: 36801 Epoch time: 14184.37419407 Element set: 848 Inclination: 098.0371 deg RA of node: 284.8523 deg Eccentricity: 0.0007843 Arg of perigee: 228.5796 deg Mean anomaly: 171.5303 deg Mean motion: 14.96893150 rev/day Decay rate: 1.0735e-04 rev/day^2 Epoch rev: 21555 Checksum: 319
Satellite: ALMASAT-1 Catalog number: 38078 Epoch time: 14184.23012971 Element set: 72 Inclination: 069.4687 deg RA of node: 020.5741 deg Eccentricity: 0.0590271 Arg of perigee: 010.4085 deg Mean anomaly: 092.6472 deg Mean motion: 14.50939760 rev/day Decay rate: 2.8466e-04 rev/day^2 Epoch rev: 12396 Checksum: 309
Satellite: XATCOBEO Catalog number: 38082 Epoch time: 14185.24797713 Element set: 367 Inclination: 069.4366 deg RA of node: 267.6393 deg Eccentricity: 0.0185192 Arg of perigee: 307.1561 deg Mean anomaly: 083.3111 deg Mean motion: 15.61854043 rev/day Decay rate: 2.27614e-03 rev/day^2 Epoch rev: 12705 Checksum: 312
Satellite: CUBEBUG-1 Catalog number: 39153 Epoch time: 14185.15011244 Element set: 262 Inclination: 098.0438 deg RA of node: 265.4203 deg Eccentricity: 0.0016763 Arg of perigee: 298.7712 deg Mean anomaly: 061.1860 deg Mean motion: 14.77746222 rev/day Decay rate: 7.08e-06 rev/day^2 Epoch rev: 6406 Checksum: 287
Satellite: ESTCUBE-1 Catalog number: 39161 Epoch time: 14185.17133034 Element set: 252 Inclination: 098.0965 deg RA of node: 265.9429 deg Eccentricity: 0.0009585 Arg of perigee: 351.8418 deg Mean anomaly: 008.2673 deg Mean motion: 14.70023597 rev/day Decay rate: 5.75e-06 rev/day^2 Epoch rev: 6209 Checksum: 310
Satellite: DUCHIFAT-1 Catalog number: 40021 Epoch time: 14185.53109901 Element set: 34 Inclination: 097.9846 deg RA of node: 080.1964 deg Eccentricity: 0.0012462 Arg of perigee: 240.9550 deg Mean anomaly: 119.0435 deg Mean motion: 14.85311333 rev/day Decay rate: 1.344e-05 rev/day^2 Epoch rev: 215 Checksum: 257
Satellite: NANOSATCBR1 Catalog number: 40024 Epoch time: 14185.12773027 Element set: 31 Inclination: 097.9823 deg RA of node: 079.7852 deg Eccentricity: 0.0011576 Arg of perigee: 242.4496 deg Mean anomaly: 117.5590 deg Mean motion: 14.85222394 rev/day Decay rate: 1.204e-05 rev/day^2 Epoch rev: 209 Checksum: 284
